Location: Colossi of Memnon
(25.7167°N, 32.6167°E)
Time: 11:11:55
(UTC+00:00)

Exosat Rocket - Pass Details

Date: 05 March 2021
Orbit: 759 x 2515 km, 72.3° (Epoch: 09 April)

Event Time Altitude Azimuth Distance (km) Brightness Sun altitude
Rises 02:02:58 0° 340° (NNW) 5,120 7.6 -29.1°
Reaches altitude 10° 02:06:36 10° 338° (NNW) 3,861 6.9 -28.3°
Maximum altitude 02:15:35 68° 258° (WSW) 1,295 4.3 -26.3°
Drops below altitude 10° 02:21:49 10° 175° (S) 2,714 6.3 -24.9°
Sets 02:23:59 0° 173° (S) 3,522 7.0 -24.4°
